User: anonymous   Login
Location: Saint-Gilles les Bains
(21.0539°S, 55.2287°E)
Time: 17:07:07
(UTC+04:00)
Language:

Hubble Space Telescope - Orbit

View from above orbital plane
View from above orbital plane
View from above satellite
View from above satellite

Ground track
Ground track

The orbit data is extracted from the following two-line orbital elements,

1 20580U 90037B   24053.19137722  .00005941  00000-0  29098-3 0  9990
2 20580  28.4700  41.2541 0002713 208.5784 151.4660 15.16042332659664
Epoch (UTC): 22 February 2024 04:35:34
Eccentricity: 0.0002713
inclination: 28.4700°
perigee height: 516 km
apogee height: 519 km
right ascension of ascending node: 41.2541°
argument of perigee: 208.5784°
revolutions per day: 15.16042332
mean anomaly at epoch: 151.4660°
orbit number at epoch: 65966

The dashed part of the orbit path shows where the satellite is in the earth's shadow,  

DLR